Location: Bagnolo San Vito
(45.0833°N, 10.8833°E)
Time: 23:55:12
(UTC+00:00)

Cosmos 2278 Rocket - Pass Details

Date: 03 March 2021
Orbit: 841 x 845 km, 71.0° (Epoch: 17 April)

Event Time Altitude Azimuth Distance (km) Brightness Sun altitude
Rises 18:40:35 0° 341° (NNW) 3,415 5.7 -17.3°
Reaches altitude 10° 18:43:34 10° 356° (N) 2,475 4.8 -17.9°
Maximum altitude 18:48:02 23° 48° (NE) 1,720 3.5 -18.6°
Enters shadow 18:48:37 23° 57° (ENE) 1,735 3.4 -18.7°
